Time,TemperatureF,DewpointF,PressureIn,WindDirection,WindDirectionDegrees,WindSpeedMPH,WindSpeedGustMPH,Humidity,HourlyPrecipIn,Conditions,Clouds,dailyrainin,SolarRadiationWatts/m^2,SoftwareType,DateUTC
2013-03-09 00:04:00,62.6,42.7,30.21,SE,136,13.0,0.0,48,0.00,,,0.00,0,WeatherHawk,2013-03-09 06:04:00,
2013-03-09 00:10:00,62.6,42.6,30.21,SSE,150,11.0,0.0,48,0.00,,,0.00,0,WeatherHawk,2013-03-09 06:10:00,
2013-03-09 00:15:00,62.5,43.1,30.21,SSE,166,12.0,0.0,49,0.00,,,0.00,0,WeatherHawk,2013-03-09 06:15:00,
2013-03-09 00:20:00,62.5,43.0,30.20,SSE,147,9.0,0.0,49,0.00,,,0.00,1,WeatherHawk,2013-03-09 06:20:00,
2013-03-09 00:25:00,62.4,43.0,30.20,SSE,150,15.0,0.0,49,0.00,,,0.00,1,WeatherHawk,2013-03-09 06:25:00,
2013-03-09 00:30:00,62.3,42.9,30.20,SE,135,14.0,-999.0,49,0.00,,,0.00,1,WeatherHawk,2013-03-09 06:30:00,
2013-03-09 00:35:00,62.3,42.9,30.20,SE,126,11.0,0.0,49,0.00,,,0.00,0,WeatherHawk,2013-03-09 06:35:00,
2013-03-09 00:40:00,62.2,43.4,30.20,SSE,166,12.0,-999.0,50,0.00,,,0.00,0,WeatherHawk,2013-03-09 06:40:00,
2013-03-09 00:45:00,62.1,43.3,30.20,ESE,106,14.0,0.0,50,0.00,,,0.00,0,WeatherHawk,2013-03-09 06:45:00,
2013-03-09 00:50:00,61.9,43.0,30.20,SSE,159,6.0,0.0,50,0.00,,,0.00,1,WeatherHawk,2013-03-09 06:50:00,
2013-03-09 00:55:00,62.0,43.6,30.20,SE,126,14.0,0.0,51,0.00,,,0.00,0,WeatherHawk,2013-03-09 06:55:00,
2013-03-09 01:00:00,61.9,43.6,30.20,SE,146,15.0,0.0,51,0.00,,,0.00,0,WeatherHawk,2013-03-09 07:00:00,
2013-03-09 01:05:00,61.8,43.5,30.20,SE,131,13.0,0.0,51,0.00,,,0.00,1,WeatherHawk,2013-03-09 07:05:00,
2013-03-09 01:10:00,61.7,43.9,30.19,SSE,148,12.0,0.0,52,0.00,,,0.00,0,WeatherHawk,2013-03-09 07:10:00,
2013-03-09 01:15:00,61.6,44.3,30.19,SE,139,13.0,0.0,53,0.00,,,0.00,1,WeatherHawk,2013-03-09 07:15:00,
2013-03-09 01:20:00,61.4,44.1,30.19,SE,143,8.0,0.0,53,0.00,,,0.00,1,WeatherHawk,2013-03-09 07:20:00,
2013-03-09 01:25:00,61.4,44.6,30.19,South,179,12.0,0.0,54,0.00,,,0.00,0,WeatherHawk,2013-03-09 07:25:00,
2013-03-09 01:30:00,61.3,44.5,30.20,SE,136,11.0,0.0,54,0.00,,,0.00,0,WeatherHawk,2013-03-09 07:30:00,
2013-03-09 01:36:00,61.2,44.9,30.19,SE,143,9.0,0.0,55,0.00,,,0.00,0,WeatherHawk,2013-03-09 07:36:00,
2013-03-09 01:41:00,61.1,44.8,30.19,ESE,106,9.0,0.0,55,0.00,,,0.00,0,WeatherHawk,2013-03-09 07:41:00,
2013-03-09 01:46:00,61.1,44.9,30.19,SSE,154,15.0,0.0,55,0.00,,,0.00,1,WeatherHawk,2013-03-09 07:46:00,
2013-03-09 01:52:00,61.0,45.2,30.18,SSE,154,12.0,0.0,56,0.00,,,0.00,0,WeatherHawk,2013-03-09 07:52:00,
2013-03-09 01:57:00,60.9,45.1,30.18,SE,135,9.0,0.0,56,0.00,,,0.00,0,WeatherHawk,2013-03-09 07:57:00,
2013-03-09 02:03:00,60.9,45.5,30.18,SSE,154,11.0,0.0,57,0.00,,,0.00,0,WeatherHawk,2013-03-09 08:03:00,
2013-03-09 02:08:00,60.9,45.5,30.18,South,171,11.0,0.0,57,0.00,,,0.00,0,WeatherHawk,2013-03-09 08:08:00,
2013-03-09 02:14:00,60.8,45.5,30.18,SSE,157,5.0,0.0,57,0.00,,,0.00,1,WeatherHawk,2013-03-09 08:14:00,
2013-03-09 02:19:00,60.8,46.0,30.18,SE,125,13.0,0.0,58,0.00,,,0.00,0,WeatherHawk,2013-03-09 08:19:00,
2013-03-09 02:24:00,60.8,45.9,30.17,SE,144,13.0,0.0,58,0.00,,,0.00,0,WeatherHawk,2013-03-09 08:24:00,
2013-03-09 02:29:00,60.8,46.0,30.16,SSE,153,13.0,0.0,58,0.00,,,0.00,0,WeatherHawk,2013-03-09 08:29:00,
2013-03-09 02:34:00,60.8,45.9,30.16,SE,137,12.0,0.0,58,0.00,,,0.00,0,WeatherHawk,2013-03-09 08:34:00,
2013-03-09 02:40:00,60.8,46.4,30.16,SE,143,12.0,-999.0,59,0.00,,,0.00,1,WeatherHawk,2013-03-09 08:40:00,
2013-03-09 02:45:00,60.8,46.4,30.15,SSE,155,12.0,0.0,59,0.00,,,0.00,1,WeatherHawk,2013-03-09 08:45:00,
2013-03-09 02:50:00,60.9,46.4,30.16,SE,129,15.0,0.0,59,0.00,,,0.00,0,WeatherHawk,2013-03-09 08:50:00,
2013-03-09 02:55:00,60.9,46.4,30.15,SSE,152,7.0,0.0,59,0.00,,,0.00,0,WeatherHawk,2013-03-09 08:55:00,
2013-03-09 03:00:00,60.8,46.4,30.15,ESE,122,8.0,-999.0,59,0.00,,,0.00,0,WeatherHawk,2013-03-09 09:00:00,
2013-03-09 03:05:00,60.9,46.4,30.15,ESE,106,9.0,0.0,59,0.00,,,0.00,0,WeatherHawk,2013-03-09 09:05:00,
2013-03-09 03:10:00,60.8,46.8,30.16,SSE,153,9.0,-999.0,60,0.00,,,0.00,0,WeatherHawk,2013-03-09 09:10:00,
2013-03-09 03:15:00,60.8,46.9,30.15,SE,127,13.0,-999.0,60,0.00,,,0.00,0,WeatherHawk,2013-03-09 09:15:00,
2013-03-09 03:20:00,60.8,46.8,30.15,SSE,153,10.0,0.0,60,0.00,,,0.00,1,WeatherHawk,2013-03-09 09:20:00,
2013-03-09 03:25:00,60.8,46.8,30.15,SSE,167,12.0,0.0,60,0.00,,,0.00,1,WeatherHawk,2013-03-09 09:25:00,
2013-03-09 03:30:00,60.8,46.9,30.14,SSE,149,9.0,0.0,60,0.00,,,0.00,0,WeatherHawk,2013-03-09 09:30:00,
2013-03-09 03:35:00,60.9,46.9,30.14,SSE,155,11.0,0.0,60,0.00,,,0.00,1,WeatherHawk,2013-03-09 09:35:00,
2013-03-09 03:40:00,60.9,47.4,30.14,SSE,157,17.0,0.0,61,0.00,,,0.00,0,WeatherHawk,2013-03-09 09:40:00,
2013-03-09 03:45:00,60.9,47.4,30.14,SSW,192,10.0,0.0,61,0.00,,,0.00,1,WeatherHawk,2013-03-09 09:45:00,
2013-03-09 03:50:00,61.0,47.4,30.14,SSE,150,14.0,0.0,61,0.00,,,0.00,0,WeatherHawk,2013-03-09 09:50:00,
2013-03-09 03:55:00,61.0,47.4,30.14,SE,124,14.0,0.0,61,0.00,,,0.00,1,WeatherHawk,2013-03-09 09:55:00,
2013-03-09 04:00:00,61.0,47.4,30.13,SSE,168,13.0,0.0,61,0.00,,,0.00,0,WeatherHawk,2013-03-09 10:00:00,
2013-03-09 04:05:00,61.0,47.4,30.14,ESE,114,9.0,0.0,61,0.00,,,0.00,0,WeatherHawk,2013-03-09 10:05:00,
2013-03-09 04:10:00,61.0,47.4,30.13,SE,129,11.0,-999.0,61,0.00,,,0.00,1,WeatherHawk,2013-03-09 10:10:00,
2013-03-09 04:15:00,61.0,47.5,30.13,SE,145,11.0,0.0,61,0.00,,,0.00,1,WeatherHawk,2013-03-09 10:15:00,
2013-03-09 04:20:00,61.1,47.5,30.14,SE,137,12.0,-999.0,61,0.00,,,0.00,1,WeatherHawk,2013-03-09 10:20:00,
2013-03-09 04:25:00,61.1,47.5,30.14,SE,127,10.0,0.0,61,0.00,,,0.00,1,WeatherHawk,2013-03-09 10:25:00,
2013-03-09 04:30:00,61.0,47.5,30.13,South,175,10.0,0.0,61,0.00,,,0.00,0,WeatherHawk,2013-03-09 10:30:00,
2013-03-09 04:35:00,61.1,47.5,30.14,ESE,104,9.0,0.0,61,0.00,,,0.00,0,WeatherHawk,2013-03-09 10:35:00,
2013-03-09 04:40:00,61.2,47.7,30.13,SE,139,6.0,0.0,61,0.00,,,0.00,1,WeatherHawk,2013-03-09 10:40:00,
2013-03-09 04:45:00,61.3,47.7,30.13,SSE,166,8.0,0.0,61,0.00,,,0.00,0,WeatherHawk,2013-03-09 10:45:00,
2013-03-09 04:50:00,61.3,47.8,30.13,ESE,116,13.0,0.0,61,0.00,,,0.00,1,WeatherHawk,2013-03-09 10:50:00,
2013-03-09 04:55:00,61.3,47.8,30.12,SE,129,12.0,-999.0,61,0.00,,,0.00,1,WeatherHawk,2013-03-09 10:55:00,
2013-03-09 05:00:00,61.5,47.9,30.12,SE,145,11.0,0.0,61,0.00,,,0.00,1,WeatherHawk,2013-03-09 11:00:00,
2013-03-09 05:05:00,61.5,48.0,30.13,SSE,151,14.0,0.0,61,0.00,,,0.00,1,WeatherHawk,2013-03-09 11:05:00,
2013-03-09 05:10:00,61.6,48.0,30.12,SSE,152,15.0,-999.0,61,0.00,,,0.00,1,WeatherHawk,2013-03-09 11:10:00,
2013-03-09 05:15:00,61.6,47.5,30.13,South,171,8.0,-999.0,60,0.00,,,0.00,0,WeatherHawk,2013-03-09 11:15:00,
2013-03-09 05:20:00,61.6,48.0,30.13,SE,141,14.0,-999.0,61,0.00,,,0.00,0,WeatherHawk,2013-03-09 11:20:00,
2013-03-09 05:25:00,61.7,48.1,30.13,SSE,164,12.0,0.0,61,0.00,,,0.00,0,WeatherHawk,2013-03-09 11:25:00,
2013-03-09 05:30:00,61.6,47.6,30.12,SE,138,13.0,0.0,60,0.00,,,0.00,0,WeatherHawk,2013-03-09 11:30:00,
2013-03-09 05:35:00,61.7,47.6,30.12,SE,128,12.0,0.0,60,0.00,,,0.00,0,WeatherHawk,2013-03-09 11:35:00,
2013-03-09 05:40:00,61.6,48.1,30.12,SE,140,14.0,0.0,61,0.00,,,0.00,1,WeatherHawk,2013-03-09 11:40:00,
2013-03-09 05:45:00,61.6,48.1,30.12,SSE,153,6.0,0.0,61,0.00,,,0.00,0,WeatherHawk,2013-03-09 11:45:00,
2013-03-09 05:50:00,61.6,48.0,30.12,ESE,121,8.0,0.0,61,0.00,,,0.00,1,WeatherHawk,2013-03-09 11:50:00,
2013-03-09 05:55:00,61.7,48.1,30.12,ESE,114,12.0,0.0,61,0.00,,,0.00,1,WeatherHawk,2013-03-09 11:55:00,
2013-03-09 06:00:00,61.8,48.2,30.12,SSE,154,23.0,-999.0,61,0.00,,,0.00,1,WeatherHawk,2013-03-09 12:00:00,
2013-03-09 06:05:00,61.7,48.1,30.11,SE,138,19.0,-999.0,61,0.00,,,0.00,1,WeatherHawk,2013-03-09 12:05:00,
2013-03-09 06:10:00,61.6,48.1,30.11,SSE,154,8.0,0.0,61,0.00,,,0.00,0,WeatherHawk,2013-03-09 12:10:00,
2013-03-09 06:15:00,61.7,48.1,30.11,SE,139,16.0,0.0,61,0.00,,,0.00,0,WeatherHawk,2013-03-09 12:15:00,
2013-03-09 06:20:00,61.7,48.1,30.10,SSE,159,13.0,-999.0,61,0.00,,,0.00,0,WeatherHawk,2013-03-09 12:20:00,
2013-03-09 06:25:00,61.8,48.6,30.10,SSE,151,17.0,0.0,62,0.00,,,0.00,1,WeatherHawk,2013-03-09 12:25:00,
2013-03-09 06:30:00,62.0,48.8,30.10,ESE,122,9.0,-999.0,62,0.00,,,0.00,0,WeatherHawk,2013-03-09 12:30:00,
2013-03-09 06:35:00,61.8,48.6,30.10,ESE,114,11.0,-999.0,62,0.00,,,0.00,1,WeatherHawk,2013-03-09 12:35:00,
2013-03-09 06:40:00,62.0,48.8,30.10,SSE,163,8.0,0.0,62,0.00,,,0.00,1,WeatherHawk,2013-03-09 12:40:00,
2013-03-09 06:45:00,61.8,48.7,30.10,ESE,122,12.0,0.0,62,0.00,,,0.00,2,WeatherHawk,2013-03-09 12:45:00,
2013-03-09 06:50:00,61.8,48.6,30.09,East,89,12.0,0.0,62,0.00,,,0.00,3,WeatherHawk,2013-03-09 12:50:00,
2013-03-09 06:55:00,61.7,48.6,30.10,ESE,105,11.0,0.0,62,0.00,,,0.00,3,WeatherHawk,2013-03-09 12:55:00,
2013-03-09 07:00:00,61.7,48.6,30.11,SE,142,10.0,0.0,62,0.00,,,0.00,6,WeatherHawk,2013-03-09 13:00:00,
2013-03-09 07:05:00,61.6,48.9,30.10,SE,144,17.0,0.0,63,0.00,,,0.00,6,WeatherHawk,2013-03-09 13:05:00,
2013-03-09 07:10:00,61.7,49.0,30.11,SE,137,11.0,0.0,63,0.00,,,0.00,8,WeatherHawk,2013-03-09 13:10:00,
2013-03-09 07:15:00,61.7,49.0,30.10,SE,130,9.0,0.0,63,0.00,,,0.00,9,WeatherHawk,2013-03-09 13:15:00,
2013-03-09 07:20:00,61.8,49.0,30.11,SE,145,12.0,0.0,63,0.00,,,0.00,9,WeatherHawk,2013-03-09 13:20:00,
2013-03-09 07:25:00,61.5,48.8,30.10,SSE,148,10.0,0.0,63,0.00,,,0.00,15,WeatherHawk,2013-03-09 13:25:00,
2013-03-09 07:30:00,61.6,48.9,30.10,ESE,108,9.0,0.0,63,0.00,,,0.00,11,WeatherHawk,2013-03-09 13:30:00,
2013-03-09 07:35:00,61.6,49.3,30.10,ESE,107,5.0,0.0,64,0.00,,,0.00,16,WeatherHawk,2013-03-09 13:35:00,
2013-03-09 07:40:00,61.6,49.3,30.11,ESE,121,10.0,0.0,64,0.00,,,0.00,18,WeatherHawk,2013-03-09 13:40:00,
2013-03-09 07:45:00,61.7,49.4,30.10,ESE,111,7.0,0.0,64,0.00,,,0.00,14,WeatherHawk,2013-03-09 13:45:00,
2013-03-09 07:50:00,61.8,49.5,30.10,ESE,106,6.0,-999.0,64,0.00,,,0.00,21,WeatherHawk,2013-03-09 13:50:00,
2013-03-09 07:55:00,62.0,50.1,30.10,SE,139,4.0,0.0,65,0.00,,,0.00,26,WeatherHawk,2013-03-09 13:55:00,
2013-03-09 08:00:00,62.0,50.1,30.09,West,275,5.0,0.0,65,0.00,,,0.00,24,WeatherHawk,2013-03-09 14:00:00,
2013-03-09 08:05:00,62.1,50.2,30.10,SE,143,5.0,-999.0,65,0.00,,,0.00,29,WeatherHawk,2013-03-09 14:05:00,
2013-03-09 08:10:00,62.2,50.7,30.10,ESE,105,5.0,0.0,66,0.00,,,0.00,32,WeatherHawk,2013-03-09 14:10:00,
2013-03-09 08:15:00,62.4,50.5,30.10,SE,141,7.0,-999.0,65,0.00,,,0.00,33,WeatherHawk,2013-03-09 14:15:00,
2013-03-09 08:20:00,62.5,51.0,30.09,East,99,6.0,0.0,66,0.00,,,0.00,38,WeatherHawk,2013-03-09 14:20:00,
2013-03-09 08:25:00,62.8,51.3,30.10,SSE,164,9.0,0.0,66,0.00,,,0.00,41,WeatherHawk,2013-03-09 14:25:00,
2013-03-09 08:30:00,62.9,51.0,30.10,ESE,118,11.0,0.0,65,0.00,,,0.00,46,WeatherHawk,2013-03-09 14:30:00,
2013-03-09 08:35:00,62.9,51.0,30.09,SE,137,12.0,0.0,65,0.00,,,0.00,39,WeatherHawk,2013-03-09 14:35:00,
2013-03-09 08:40:00,63.1,51.2,30.10,SSE,147,10.0,0.0,65,0.00,,,0.00,45,WeatherHawk,2013-03-09 14:40:00,
2013-03-09 08:45:00,63.2,51.3,30.09,SE,143,13.0,0.0,65,0.00,,,0.00,42,WeatherHawk,2013-03-09 14:45:00,
2013-03-09 08:50:00,63.4,51.0,30.09,SE,142,17.0,0.0,64,0.00,,,0.00,51,WeatherHawk,2013-03-09 14:50:00,
2013-03-09 08:55:00,63.6,51.2,30.09,SSE,155,13.0,-999.0,64,0.00,,,0.00,49,WeatherHawk,2013-03-09 14:55:00,
2013-03-09 09:00:00,63.8,50.9,30.09,SE,132,12.0,0.0,63,0.00,,,0.00,48,WeatherHawk,2013-03-09 15:00:00,
2013-03-09 09:05:00,63.9,51.0,30.09,South,170,10.0,0.0,63,0.00,,,0.00,50,WeatherHawk,2013-03-09 15:05:00,
2013-03-09 09:10:00,64.1,51.2,30.08,SSE,159,14.0,0.0,63,0.00,,,0.00,57,WeatherHawk,2013-03-09 15:10:00,
2013-03-09 09:15:00,64.2,50.9,30.08,South,171,12.0,0.0,62,0.00,,,0.00,62,WeatherHawk,2013-03-09 15:15:00,
2013-03-09 09:20:00,64.3,51.0,30.08,SSE,152,9.0,0.0,62,0.00,,,0.00,56,WeatherHawk,2013-03-09 15:20:00,
2013-03-09 09:25:00,64.3,50.6,30.08,SSE,159,12.0,0.0,61,0.00,,,0.00,66,WeatherHawk,2013-03-09 15:25:00,
2013-03-09 09:30:00,64.5,50.7,30.08,SSE,159,10.0,-999.0,61,0.00,,,0.00,66,WeatherHawk,2013-03-09 15:30:00,
2013-03-09 09:35:00,64.7,50.9,30.07,SE,146,14.0,0.0,61,0.00,,,0.00,80,WeatherHawk,2013-03-09 15:35:00,
2013-03-09 09:40:00,64.8,50.6,30.07,ESE,123,8.0,0.0,60,0.00,,,0.00,85,WeatherHawk,2013-03-09 15:40:00,
2013-03-09 09:45:00,65.0,50.3,30.06,SSE,155,12.0,0.0,59,0.00,,,0.00,82,WeatherHawk,2013-03-09 15:45:00,
2013-03-09 09:50:00,65.1,50.5,30.07,South,183,9.0,0.0,59,0.00,,,0.00,80,WeatherHawk,2013-03-09 15:50:00,
2013-03-09 09:55:00,65.3,50.1,30.07,South,184,11.0,0.0,58,0.00,,,0.00,132,WeatherHawk,2013-03-09 15:55:00,
2013-03-09 10:00:00,65.5,50.3,30.06,SSE,159,15.0,0.0,58,0.00,,,0.00,106,WeatherHawk,2013-03-09 16:00:00,
2013-03-09 10:05:00,65.5,49.8,30.07,South,183,13.0,0.0,57,0.00,,,0.00,91,WeatherHawk,2013-03-09 16:05:00,
2013-03-09 10:10:00,65.8,50.1,30.07,SSE,160,9.0,0.0,57,0.00,,,0.00,89,WeatherHawk,2013-03-09 16:10:00,
2013-03-09 10:15:00,65.8,49.6,30.06,SE,138,14.0,0.0,56,0.00,,,0.00,80,WeatherHawk,2013-03-09 16:15:00,
2013-03-09 10:20:00,65.9,49.7,30.06,SSE,151,9.0,-999.0,56,0.00,,,0.00,106,WeatherHawk,2013-03-09 16:20:00,
2013-03-09 10:25:00,66.0,49.9,30.08,SSE,149,10.0,0.0,56,0.00,,,0.00,83,WeatherHawk,2013-03-09 16:25:00,
2013-03-09 10:30:00,66.0,49.4,30.07,SSE,148,12.0,0.0,55,0.00,,,0.00,91,WeatherHawk,2013-03-09 16:30:00,
2013-03-09 10:35:00,66.3,49.7,30.07,SSE,159,9.0,0.0,55,0.00,,,0.00,81,WeatherHawk,2013-03-09 16:35:00,
2013-03-09 10:40:00,66.4,49.8,30.07,SSW,197,9.0,0.0,55,0.00,,,0.00,82,WeatherHawk,2013-03-09 16:40:00,
2013-03-09 10:45:00,66.6,49.9,30.07,SSE,151,8.0,0.0,55,0.00,,,0.00,113,WeatherHawk,2013-03-09 16:45:00,
2013-03-09 10:50:00,66.6,49.4,30.07,SE,144,12.0,0.0,54,0.00,,,0.00,95,WeatherHawk,2013-03-09 16:50:00,
2013-03-09 10:55:00,66.9,49.7,30.06,SSE,147,8.0,0.0,54,0.00,,,0.00,90,WeatherHawk,2013-03-09 16:55:00,
2013-03-09 11:00:00,66.9,49.2,30.06,South,169,13.0,0.0,53,0.00,,,0.00,95,WeatherHawk,2013-03-09 17:00:00,
2013-03-09 11:05:00,67.0,49.3,30.06,South,170,14.0,0.0,53,0.00,,,0.00,88,WeatherHawk,2013-03-09 17:05:00,
2013-03-09 11:10:00,67.1,49.3,30.06,SSE,158,10.0,0.0,53,0.00,,,0.00,97,WeatherHawk,2013-03-09 17:10:00,
2013-03-09 11:15:00,67.2,49.0,30.05,SSE,168,11.0,0.0,52,0.00,,,0.00,100,WeatherHawk,2013-03-09 17:15:00,
2013-03-09 11:20:00,67.6,49.3,30.06,SSE,157,8.0,0.0,52,0.00,,,0.00,129,WeatherHawk,2013-03-09 17:20:00,
2013-03-09 11:25:00,68.0,49.1,30.04,SE,139,10.0,0.0,51,0.00,,,0.00,179,WeatherHawk,2013-03-09 17:25:00,
2013-03-09 11:30:00,67.9,48.6,30.05,SE,144,10.0,0.0,50,0.00,,,0.00,81,WeatherHawk,2013-03-09 17:30:00,
2013-03-09 11:36:00,68.5,49.1,30.05,South,172,8.0,0.0,50,0.00,,,0.00,121,WeatherHawk,2013-03-09 17:36:00,
2013-03-09 11:41:00,68.6,48.6,30.04,ESE,120,10.0,0.0,49,0.00,,,0.00,101,WeatherHawk,2013-03-09 17:41:00,
2013-03-09 11:47:00,68.8,48.3,30.06,SE,128,9.0,0.0,48,0.00,,,0.00,133,WeatherHawk,2013-03-09 17:47:00,
2013-03-09 11:52:00,68.8,48.3,30.04,SE,139,10.0,0.0,48,0.00,,,0.00,123,WeatherHawk,2013-03-09 17:52:00,
2013-03-09 11:57:00,68.3,49.0,30.03,SSE,159,22.0,0.0,50,0.00,,,0.00,114,WeatherHawk,2013-03-09 17:57:00,
2013-03-09 12:02:00,68.3,50.0,30.04,SSE,152,12.0,0.0,52,0.00,,,0.00,84,WeatherHawk,2013-03-09 18:02:00,
2013-03-09 12:07:00,67.9,50.6,30.04,SSE,165,14.0,0.0,54,0.00,,,0.00,74,WeatherHawk,2013-03-09 18:07:00,
2013-03-09 12:13:00,66.5,51.8,30.03,SSE,158,11.0,0.0,59,0.00,,,0.00,72,WeatherHawk,2013-03-09 18:13:00,
2013-03-09 12:18:00,66.9,53.0,30.04,SE,144,12.0,0.0,61,0.00,,,0.00,65,WeatherHawk,2013-03-09 18:18:00,
2013-03-09 12:23:00,66.8,54.2,30.05,SSE,162,14.0,0.0,64,0.00,,,0.00,65,WeatherHawk,2013-03-09 18:23:00,
2013-03-09 12:28:00,66.0,55.9,30.03,ESE,112,12.0,0.0,70,0.00,,,0.00,66,WeatherHawk,2013-03-09 18:28:00,
2013-03-09 12:33:00,66.1,56.8,30.03,SE,145,12.0,0.0,72,0.00,,,0.00,87,WeatherHawk,2013-03-09 18:33:00,
2013-03-09 12:38:00,65.9,57.4,30.03,SE,144,12.0,0.0,74,0.00,,,0.00,81,WeatherHawk,2013-03-09 18:38:00,
2013-03-09 12:43:00,65.7,56.8,30.03,SE,143,16.0,0.0,73,0.00,,,0.00,80,WeatherHawk,2013-03-09 18:43:00,
2013-03-09 12:49:00,64.7,58.0,30.04,ESE,118,4.0,0.0,79,0.00,,,0.00,91,WeatherHawk,2013-03-09 18:49:00,
2013-03-09 12:54:00,65.1,58.8,30.03,South,172,10.0,0.0,80,0.00,,,0.00,93,WeatherHawk,2013-03-09 18:54:00,
2013-03-09 12:59:00,64.0,58.4,30.03,South,180,11.0,0.0,82,0.00,,,0.00,119,WeatherHawk,2013-03-09 18:59:00,
2013-03-09 13:05:00,65.6,60.6,30.02,SE,142,11.0,0.0,84,0.00,,,0.00,113,WeatherHawk,2013-03-09 19:05:00,
2013-03-09 13:10:00,65.8,59.4,30.02,ESE,119,11.0,-999.0,80,0.00,,,0.00,93,WeatherHawk,2013-03-09 19:10:00,
2013-03-09 13:15:00,65.7,59.0,30.02,SE,144,10.0,0.0,79,0.00,,,0.00,114,WeatherHawk,2013-03-09 19:15:00,
2013-03-09 13:20:00,65.0,59.4,30.01,SSE,168,11.0,-999.0,82,0.00,,,0.00,95,WeatherHawk,2013-03-09 19:20:00,
2013-03-09 13:25:00,64.8,59.5,30.00,SSE,150,5.0,0.0,83,0.00,,,0.00,82,WeatherHawk,2013-03-09 19:25:00,
2013-03-09 13:30:00,65.2,60.3,30.00,SSE,158,13.0,0.0,84,0.00,,,0.00,64,WeatherHawk,2013-03-09 19:30:00,
2013-03-09 13:35:00,65.4,60.8,30.00,South,189,10.0,0.0,85,0.00,,,0.00,49,WeatherHawk,2013-03-09 19:35:00,
2013-03-09 13:40:00,64.8,60.5,29.99,SE,136,10.0,-999.0,86,0.00,,,0.00,58,WeatherHawk,2013-03-09 19:40:00,
2013-03-09 13:45:00,64.7,60.8,29.99,South,169,8.0,0.0,87,0.00,,,0.00,58,WeatherHawk,2013-03-09 19:45:00,
2013-03-09 13:50:00,64.8,61.1,30.00,SSE,160,5.0,-999.0,88,0.00,,,0.00,74,WeatherHawk,2013-03-09 19:50:00,
2013-03-09 13:55:00,65.2,61.3,30.00,SE,136,8.0,0.0,87,0.00,,,0.00,103,WeatherHawk,2013-03-09 19:55:00,
2013-03-09 14:00:00,65.6,61.9,29.98,SSE,151,6.0,-999.0,88,0.00,,,0.00,113,WeatherHawk,2013-03-09 20:00:00,
2013-03-09 14:05:00,65.5,61.9,29.98,South,186,7.0,0.0,88,0.00,,,0.00,107,WeatherHawk,2013-03-09 20:05:00,
2013-03-09 14:10:00,65.4,62.0,29.99,SSW,194,7.0,0.0,89,0.00,,,0.00,80,WeatherHawk,2013-03-09 20:10:00,
2013-03-09 14:15:00,64.7,61.1,29.98,South,181,7.0,0.0,88,0.00,,,0.00,71,WeatherHawk,2013-03-09 20:15:00,
2013-03-09 14:20:00,64.7,61.0,29.98,ESE,123,2.0,0.0,88,0.00,,,0.00,93,WeatherHawk,2013-03-09 20:20:00,
2013-03-09 14:25:00,64.6,60.9,29.98,South,180,10.0,-999.0,88,0.00,,,0.00,96,WeatherHawk,2013-03-09 20:25:00,
2013-03-09 14:30:00,64.6,61.3,29.97,SSE,164,9.0,0.0,89,0.00,,,0.00,112,WeatherHawk,2013-03-09 20:30:00,
2013-03-09 14:35:00,65.4,62.4,29.97,SE,139,13.0,-999.0,90,0.00,,,0.00,160,WeatherHawk,2013-03-09 20:35:00,
2013-03-09 14:40:00,65.1,62.1,29.95,ESE,119,14.0,-999.0,90,0.00,,,0.00,410,WeatherHawk,2013-03-09 20:40:00,
2013-03-09 14:45:00,65.3,62.0,29.95,ESE,115,16.0,-999.0,89,0.00,,,0.00,353,WeatherHawk,2013-03-09 20:45:00,
2013-03-09 14:50:00,66.2,62.5,29.95,SE,130,9.0,0.0,88,0.00,,,0.00,261,WeatherHawk,2013-03-09 20:50:00,
2013-03-09 14:55:00,65.4,61.8,29.95,SE,144,14.0,0.0,88,0.00,,,0.00,134,WeatherHawk,2013-03-09 20:55:00,
2013-03-09 15:00:00,65.9,62.2,29.94,SE,143,11.0,-999.0,88,0.00,,,0.00,138,WeatherHawk,2013-03-09 21:00:00,
2013-03-09 15:05:00,66.0,62.0,29.94,SSE,149,10.0,0.0,87,0.00,,,0.00,141,WeatherHawk,2013-03-09 21:05:00,
2013-03-09 15:10:00,66.3,62.0,29.94,SE,128,16.0,-999.0,86,0.00,,,0.00,146,WeatherHawk,2013-03-09 21:10:00,
2013-03-09 15:15:00,66.2,62.2,29.94,SE,136,10.0,0.0,87,0.00,,,0.00,179,WeatherHawk,2013-03-09 21:15:00,
2013-03-09 15:20:00,65.9,61.6,29.94,SE,146,17.0,-999.0,86,0.00,,,0.00,169,WeatherHawk,2013-03-09 21:20:00,
2013-03-09 15:25:00,66.4,62.4,29.93,SE,146,13.0,0.0,87,0.00,,,0.00,187,WeatherHawk,2013-03-09 21:25:00,
2013-03-09 15:30:00,66.5,62.2,29.93,SSE,152,7.0,0.0,86,0.00,,,0.00,110,WeatherHawk,2013-03-09 21:30:00,
2013-03-09 15:35:00,65.7,61.0,29.94,SE,143,6.0,-999.0,85,0.00,,,0.00,100,WeatherHawk,2013-03-09 21:35:00,
2013-03-09 15:40:00,66.8,61.8,29.94,South,177,10.0,0.0,84,0.00,,,0.00,109,WeatherHawk,2013-03-09 21:40:00,
2013-03-09 15:45:00,65.6,60.3,29.94,SSE,147,8.0,0.0,83,0.00,,,0.00,92,WeatherHawk,2013-03-09 21:45:00,
2013-03-09 15:50:00,66.7,61.7,29.94,SE,134,9.0,0.0,84,0.00,,,0.00,78,WeatherHawk,2013-03-09 21:50:00,
2013-03-09 15:55:00,66.8,61.1,29.94,SSE,160,9.0,0.0,82,0.00,,,0.00,88,WeatherHawk,2013-03-09 21:55:00,
2013-03-09 16:00:00,67.1,60.7,29.93,SE,134,7.0,0.0,80,0.00,,,0.00,126,WeatherHawk,2013-03-09 22:00:00,
2013-03-09 16:05:00,67.0,60.6,29.93,SSE,151,8.0,0.0,80,0.00,,,0.00,56,WeatherHawk,2013-03-09 22:05:00,
2013-03-09 16:10:00,66.7,61.4,29.92,SSW,197,10.0,0.0,83,0.00,,,0.00,158,WeatherHawk,2013-03-09 22:10:00,
2013-03-09 16:15:00,66.7,61.7,29.91,SE,136,9.0,0.0,84,0.00,,,0.00,221,WeatherHawk,2013-03-09 22:15:00,
2013-03-09 16:20:00,66.9,61.2,29.91,SE,144,14.0,0.0,82,0.00,,,0.00,194,WeatherHawk,2013-03-09 22:20:00,
2013-03-09 16:25:00,65.7,59.4,29.91,ESE,121,13.0,-999.0,80,0.00,,,0.00,317,WeatherHawk,2013-03-09 22:25:00,
2013-03-09 16:30:00,67.8,60.3,29.90,SE,145,15.0,-999.0,77,0.04,,,0.04,59,WeatherHawk,2013-03-09 22:30:00,
2013-03-09 16:35:00,67.8,59.2,29.89,SE,143,8.0,-999.0,74,0.04,,,0.04,72,WeatherHawk,2013-03-09 22:35:00,
2013-03-09 16:40:00,67.8,59.2,29.90,SSE,159,13.0,0.0,74,0.04,,,0.04,95,WeatherHawk,2013-03-09 22:40:00,
2013-03-09 16:45:00,68.0,58.7,29.89,SE,130,14.0,0.0,72,0.04,,,0.04,196,WeatherHawk,2013-03-09 22:45:00,
2013-03-09 16:50:00,68.0,58.7,29.88,SE,132,8.0,0.0,72,0.04,,,0.04,113,WeatherHawk,2013-03-09 22:50:00,
2013-03-09 16:55:00,68.2,58.1,29.87,SE,140,10.0,0.0,70,0.04,,,0.04,113,WeatherHawk,2013-03-09 22:55:00,
2013-03-09 17:00:00,68.6,57.2,29.86,ESE,114,12.0,0.0,67,0.04,,,0.04,47,WeatherHawk,2013-03-09 23:00:00,
2013-03-09 17:05:00,68.6,56.8,29.86,SE,129,9.0,-999.0,66,0.04,,,0.04,25,WeatherHawk,2013-03-09 23:05:00,
2013-03-09 17:10:00,69.0,55.9,29.86,SE,127,11.0,0.0,63,0.04,,,0.04,53,WeatherHawk,2013-03-09 23:10:00,
2013-03-09 17:15:00,69.2,54.7,29.86,SSE,165,11.0,0.0,60,0.04,,,0.04,49,WeatherHawk,2013-03-09 23:15:00,
2013-03-09 17:20:00,69.5,53.6,29.87,SE,133,8.0,0.0,57,0.04,,,0.04,59,WeatherHawk,2013-03-09 23:20:00,
2013-03-09 17:25:00,69.6,53.2,29.87,ESE,123,10.0,-999.0,56,0.04,,,0.04,40,WeatherHawk,2013-03-09 23:25:00,
2013-03-09 17:30:00,69.9,53.5,29.88,SE,141,11.0,-999.0,56,0.00,,,0.04,27,WeatherHawk,2013-03-09 23:30:00,
2013-03-09 17:35:00,69.8,52.9,29.90,SE,144,8.0,0.0,55,0.00,,,0.04,14,WeatherHawk,2013-03-09 23:35:00,
2013-03-09 17:40:00,69.8,52.9,29.89,SSW,200,7.0,-999.0,55,0.00,,,0.04,8,WeatherHawk,2013-03-09 23:40:00,
2013-03-09 17:45:00,69.8,52.4,29.89,SSE,147,8.0,-999.0,54,0.00,,,0.04,9,WeatherHawk,2013-03-09 23:45:00,
2013-03-09 17:50:00,69.9,52.5,29.90,SSW,195,5.0,0.0,54,0.00,,,0.04,7,WeatherHawk,2013-03-09 23:50:00,
2013-03-09 17:55:00,70.1,52.2,29.90,SSE,159,6.0,-999.0,53,0.00,,,0.04,6,WeatherHawk,2013-03-09 23:55:00,
2013-03-09 18:00:00,69.8,52.4,29.90,WSW,238,4.0,0.0,54,0.00,,,0.04,6,WeatherHawk,2013-03-10 00:00:00,
2013-03-09 18:05:00,69.7,52.3,29.91,South,186,3.0,0.0,54,0.00,,,0.04,8,WeatherHawk,2013-03-10 00:05:00,
2013-03-09 18:10:00,70.2,52.3,29.90,South,189,9.0,0.0,53,0.00,,,0.04,4,WeatherHawk,2013-03-10 00:10:00,
2013-03-09 18:15:00,70.2,51.7,29.90,SSE,148,7.0,0.0,52,0.00,,,0.04,3,WeatherHawk,2013-03-10 00:15:00,
2013-03-09 18:20:00,70.1,51.7,29.91,SSW,206,4.0,0.0,52,0.00,,,0.04,2,WeatherHawk,2013-03-10 00:20:00,
2013-03-09 18:25:00,70.0,51.5,29.91,South,189,5.0,-999.0,52,0.00,,,0.04,1,WeatherHawk,2013-03-10 00:25:00,
2013-03-09 18:30:00,70.1,51.1,29.92,SE,137,4.0,-999.0,51,0.00,,,0.04,2,WeatherHawk,2013-03-10 00:30:00,
2013-03-09 18:35:00,69.9,51.0,29.91,SSE,148,5.0,0.0,51,0.00,,,0.04,0,WeatherHawk,2013-03-10 00:35:00,
2013-03-09 18:40:00,70.0,51.0,29.91,SE,142,7.0,-999.0,51,0.00,,,0.04,1,WeatherHawk,2013-03-10 00:40:00,
2013-03-09 18:45:00,70.4,51.4,29.90,SSE,150,10.0,0.0,51,0.00,,,0.04,1,WeatherHawk,2013-03-10 00:45:00,
2013-03-09 18:50:00,69.9,50.9,29.92,SSE,156,6.0,0.0,51,0.00,,,0.04,0,WeatherHawk,2013-03-10 00:50:00,
2013-03-09 18:55:00,69.9,51.0,29.91,ESE,113,4.0,-999.0,51,0.00,,,0.04,1,WeatherHawk,2013-03-10 00:55:00,
2013-03-09 19:00:00,70.1,51.1,29.90,South,176,5.0,0.0,51,0.00,,,0.04,0,WeatherHawk,2013-03-10 01:00:00,
2013-03-09 19:05:00,69.9,51.5,29.91,SE,143,4.0,0.0,52,0.00,,,0.04,0,WeatherHawk,2013-03-10 01:05:00,
2013-03-09 19:10:00,69.9,51.0,29.91,South,172,7.0,0.0,51,0.00,,,0.04,1,WeatherHawk,2013-03-10 01:10:00,
2013-03-09 19:15:00,70.0,50.5,29.89,SSW,208,7.0,0.0,50,0.00,,,0.04,0,WeatherHawk,2013-03-10 01:15:00,
2013-03-09 19:20:00,70.1,50.5,29.90,SE,127,8.0,-999.0,50,0.00,,,0.04,0,WeatherHawk,2013-03-10 01:20:00,
2013-03-09 19:25:00,69.8,50.9,29.90,SSE,148,7.0,0.0,51,0.00,,,0.04,1,WeatherHawk,2013-03-10 01:25:00,
2013-03-09 19:30:00,69.6,50.7,29.89,South,177,5.0,-999.0,51,0.00,,,0.04,0,WeatherHawk,2013-03-10 01:30:00,
2013-03-09 19:35:00,69.8,50.9,29.89,SE,130,6.0,0.0,51,0.00,,,0.04,1,WeatherHawk,2013-03-10 01:35:00,
2013-03-09 19:40:00,69.8,50.8,29.90,SSE,165,7.0,0.0,51,0.00,,,0.04,0,WeatherHawk,2013-03-10 01:40:00,
2013-03-09 19:45:00,69.8,50.4,29.91,SSE,148,4.0,0.0,50,0.00,,,0.04,1,WeatherHawk,2013-03-10 01:45:00,
2013-03-09 19:50:00,69.9,50.4,29.90,SE,145,6.0,0.0,50,0.00,,,0.04,1,WeatherHawk,2013-03-10 01:50:00,
2013-03-09 19:55:00,69.7,50.2,29.91,South,173,3.0,0.0,50,0.00,,,0.04,0,WeatherHawk,2013-03-10 01:55:00,
2013-03-09 20:00:00,69.8,50.8,29.91,SE,131,3.0,0.0,51,0.00,,,0.04,0,WeatherHawk,2013-03-10 02:00:00,
2013-03-09 20:05:00,69.7,50.7,29.91,NE,39,0.0,0.0,51,0.00,,,0.04,0,WeatherHawk,2013-03-10 02:05:00,
2013-03-09 20:10:00,69.8,50.3,29.91,SE,145,0.0,-999.0,50,0.00,,,0.04,1,WeatherHawk,2013-03-10 02:10:00,
2013-03-09 20:15:00,69.4,50.4,29.91,East,92,1.0,0.0,51,0.00,,,0.04,1,WeatherHawk,2013-03-10 02:15:00,
2013-03-09 20:20:00,69.6,50.7,29.92,East,91,1.0,0.0,51,0.00,,,0.04,0,WeatherHawk,2013-03-10 02:20:00,
2013-03-09 20:25:00,69.8,50.9,29.92,SSE,158,3.0,0.0,51,0.00,,,0.04,0,WeatherHawk,2013-03-10 02:25:00,
2013-03-09 20:30:00,69.7,50.7,29.92,SSW,195,0.0,0.0,51,0.00,,,0.04,0,WeatherHawk,2013-03-10 02:30:00,
2013-03-09 20:35:00,69.2,50.8,29.92,South,170,0.0,0.0,52,0.00,,,0.04,0,WeatherHawk,2013-03-10 02:35:00,
2013-03-09 20:40:00,68.6,51.2,29.92,NE,41,0.0,0.0,54,0.00,,,0.04,0,WeatherHawk,2013-03-10 02:40:00,
2013-03-09 20:46:00,69.5,52.6,29.93,SSW,206,3.0,0.0,55,0.00,,,0.04,1,WeatherHawk,2013-03-10 02:46:00,
2013-03-09 20:51:00,68.1,51.8,29.92,ESE,104,0.0,0.0,56,0.00,,,0.04,0,WeatherHawk,2013-03-10 02:51:00,
2013-03-09 20:56:00,67.6,52.8,29.93,NNW,329,0.0,0.0,59,0.00,,,0.04,0,WeatherHawk,2013-03-10 02:56:00,
2013-03-09 21:01:00,67.7,52.9,29.94,WNW,286,0.0,0.0,59,0.00,,,0.04,1,WeatherHawk,2013-03-10 03:01:00,
2013-03-09 21:06:00,67.2,54.6,29.94,SSW,213,0.0,0.0,64,0.04,,,0.08,1,WeatherHawk,2013-03-10 03:06:00,
2013-03-09 21:11:00,66.3,56.6,29.94,ESE,118,0.0,0.0,71,0.04,,,0.08,0,WeatherHawk,2013-03-10 03:11:00,
2013-03-09 21:17:00,66.8,57.0,29.94,ENE,68,0.0,0.0,71,0.04,,,0.08,0,WeatherHawk,2013-03-10 03:17:00,
2013-03-09 21:22:00,66.2,55.7,29.95,NE,36,0.0,0.0,69,0.04,,,0.08,0,WeatherHawk,2013-03-10 03:22:00,
2013-03-09 21:27:00,66.2,57.2,29.93,NE,40,0.0,0.0,73,0.04,,,0.08,1,WeatherHawk,2013-03-10 03:27:00,
2013-03-09 21:33:00,66.8,57.9,29.92,NNE,19,3.0,0.0,73,0.04,,,0.08,0,WeatherHawk,2013-03-10 03:33:00,
2013-03-09 21:38:00,66.3,58.5,29.92,East,96,0.0,0.0,76,0.04,,,0.08,0,WeatherHawk,2013-03-10 03:38:00,
2013-03-09 21:43:00,64.1,54.9,29.92,West,266,3.0,0.0,72,0.08,,,0.12,0,WeatherHawk,2013-03-10 03:43:00,
2013-03-09 21:48:00,60.8,52.4,29.94,ESE,102,8.0,0.0,74,0.12,,,0.16,0,WeatherHawk,2013-03-10 03:48:00,
2013-03-09 21:53:00,60.2,55.7,29.93,NW,325,7.0,0.0,85,0.28,,,0.31,0,WeatherHawk,2013-03-10 03:53:00,
2013-03-09 21:58:00,61.1,57.8,29.94,South,179,9.0,0.0,89,0.28,,,0.31,0,WeatherHawk,2013-03-10 03:58:00,
2013-03-09 22:03:00,62.0,58.1,29.93,SE,126,0.0,0.0,87,0.28,,,0.31,1,WeatherHawk,2013-03-10 04:03:00,
2013-03-09 22:08:00,63.1,59.2,29.93,WNW,300,2.0,0.0,87,0.24,,,0.31,0,WeatherHawk,2013-03-10 04:08:00,
2013-03-09 22:13:00,62.7,58.4,29.94,South,176,2.0,0.0,86,0.24,,,0.31,0,WeatherHawk,2013-03-10 04:13:00,
2013-03-09 22:18:00,62.4,58.2,29.94,ENE,67,0.0,0.0,86,0.24,,,0.31,0,WeatherHawk,2013-03-10 04:18:00,
2013-03-09 22:24:00,62.3,58.1,29.93,East,97,0.0,0.0,86,0.24,,,0.31,0,WeatherHawk,2013-03-10 04:24:00,
2013-03-09 22:29:00,62.2,58.0,29.93,East,97,0.0,0.0,86,0.24,,,0.31,0,WeatherHawk,2013-03-10 04:29:00,
2013-03-09 22:35:00,61.9,57.9,29.92,NE,44,0.0,0.0,87,0.28,,,0.35,1,WeatherHawk,2013-03-10 04:35:00,
2013-03-09 22:40:00,62.0,58.4,29.95,NE,44,0.0,0.0,88,0.24,,,0.35,1,WeatherHawk,2013-03-10 04:40:00,
2013-03-09 22:45:00,61.9,58.3,29.94,North,2,0.0,-999.0,88,0.24,,,0.35,1,WeatherHawk,2013-03-10 04:45:00,
2013-03-09 22:50:00,62.0,58.7,29.93,North,1,0.0,0.0,89,0.12,,,0.35,0,WeatherHawk,2013-03-10 04:50:00,
2013-03-09 22:55:00,62.0,59.0,29.94,SSE,162,0.0,-999.0,90,0.08,,,0.39,0,WeatherHawk,2013-03-10 04:55:00,
2013-03-09 23:00:00,61.6,58.6,29.94,SSW,192,0.0,0.0,90,0.08,,,0.39,0,WeatherHawk,2013-03-10 05:00:00,
2013-03-09 23:02:00,61.3,58.3,29.94,NNE,16,0.0,0.0,90,0.20,,,0.51,1,WeatherHawk,2013-03-10 05:02:00,
2013-03-09 23:05:00,61.3,58.3,29.94,NNW,334,0.0,0.0,90,0.28,,,0.59,1,WeatherHawk,2013-03-10 05:05:00,
2013-03-09 23:10:00,61.2,58.8,29.92,WNW,300,0.0,-999.0,92,0.47,,,0.79,0,WeatherHawk,2013-03-10 05:10:00,
2013-03-09 23:15:00,60.9,58.5,29.93,WNW,300,5.0,0.0,92,0.55,,,0.87,0,WeatherHawk,2013-03-10 05:15:00,
2013-03-09 23:20:00,61.6,59.6,29.93,SE,137,8.0,-999.0,93,0.79,,,1.10,1,WeatherHawk,2013-03-10 05:20:00,
2013-03-09 23:25:00,61.9,59.6,29.90,ENE,73,0.0,0.0,92,0.91,,,1.22,0,WeatherHawk,2013-03-10 05:25:00,
2013-03-09 23:30:00,62.1,58.8,29.91,South,171,1.0,0.0,89,0.94,,,1.26,0,WeatherHawk,2013-03-10 05:30:00,
2013-03-09 23:35:00,62.2,58.9,29.94,SW,224,6.0,0.0,89,1.06,,,1.42,0,WeatherHawk,2013-03-10 05:35:00,
2013-03-09 23:41:00,65.9,61.9,29.93,South,191,17.0,0.0,87,1.06,,,1.42,0,WeatherHawk,2013-03-10 05:41:00,
2013-03-09 23:47:00,65.9,57.3,29.94,SSW,203,17.0,0.0,74,1.06,,,1.42,1,WeatherHawk,2013-03-10 05:47:00,
2013-03-09 23:52:00,65.0,57.6,29.95,WSW,250,14.0,0.0,77,1.06,,,1.42,1,WeatherHawk,2013-03-10 05:52:00,
2013-03-09 23:57:00,63.8,57.5,29.96,SW,226,11.0,0.0,80,1.02,,,1.42,0,WeatherHawk,2013-03-10 05:57:00,